Location: Newark
(45.8667°N, 9.7333°E)
Time: 11:05:56
(UTC+00:00)

Vanguard 2 Rocket - Pass Details

Date: 28 January 2020
Orbit: 554 x 3327 km, 32.9° (Epoch: 19 February)

Event Time Altitude Azimuth Distance (km) Brightness Sun altitude
Rises 04:39:00 0° 233° (SW) 2,758 - -22.5°
Reaches altitude 10° 04:41:36 10° 213° (SSW) 1,977 - -22.0°
Exits shadow 04:42:40 14° 199° (SSW) 1,771 8.2 -21.9°
Maximum altitude 04:44:40 18° 168° (SSE) 1,696 8.5 -21.5°
Drops below altitude 10° 04:48:30 10° 125° (SE) 2,556 10.1 -20.8°
Sets 04:52:29 0° 109° (ESE) 3,952 11.6 -20.2°
